Hollywood, FL

9:46 AM EDT on August 24, 2016 (GMT -0400)
North Perry

Weather History for KHWO - September, 2012

Change the Weather History Date:

Sunday, September 16, 2012

  Actual Average (KFLL) Record (KFLL)
Temperature  
Mean Temperature 80 °F 83 °F  
Max Temperature 86 °F 89 °F 94 °F (1968)
Min Temperature 75 °F 78 °F 68 °F (1976)
Degree Days  
Heating Degree Days 0 0  
Month to date heating degree days 0  
Since 1 July heating degree days 0  
Cooling Degree Days 16 18  
Month to date cooling degree days 294  
Year to date cooling degree days 3460  
Growing Degree Days 30 (Base 50)    
Moisture  
Dew Point 73 °F    
Average Humidity 81    
Maximum Humidity 94    
Minimum Humidity 63    
Precipitation  
Precipitation 0.25 in 0.31 in 3.20 in (1950)
Month to date precipitation 4.54  
Year to date precipitation 45.61  
Snow  
Snow 0.00 in - - ()
Month to date snowfall  
Since 1 July snowfall  
Since 1 September snowfall  
Snow Depth -    
Sea Level Pressure  
Sea Level Pressure 30.03 in    
Wind  
Wind Speed 5 mph (East)    
Max Wind Speed 16 mph    
Max Gust Speed 23 mph    
Visibility 8 miles    
Events Rain    
T = Trace of Precipitation, MM = Missing Value Source: NWS Daily Summary

Daily Weather History Graph

Daily Weather History Graph

Search for Another Location

Airport or City:

Trip Planner

Search our weather history database for the weather conditions in past years. The results will help you decide how hot, cold, wet, or windy it might be!

Date:

Astronomy

Sep. 16, 2012 Rise Set
Actual Time 7:07 AM EDT 7:23 PM EDT
Civil Twilight 6:44 AM EDT 7:46 PM EDT
Nautical Twilight 6:17 AM EDT 8:13 PM EDT
Astronomical Twilight 5:50 AM EDT 8:40 PM EDT
Moon 7:35 AM EDT (9/16) 7:40 PM EDT (9/16)
Length of Visible Light 13h 02m
Length of Day
12h 16m
New Moon, 0% of the Moon is Illuminated
Sep 16
New Moon
Sep 22
First Quarter
Sep 29
Full
Oct 8
Last Quarter
Oct 15
New

Hourly Weather History & Observations

Time (EDT) Temp. Heat Index Dew Point Humidity Pressure Visibility Wind Dir Wind Speed Gust Speed Precip Events Conditions
12:53 AM 80.1 °F 84.2 °F 73.0 °F 79% 30.04 in 10.0 mi East 5.8 mph - N/A   Clear
1:53 AM 79.0 °F - 71.1 °F 77% 30.04 in 10.0 mi East 4.6 mph - N/A   Clear
2:53 AM 79.0 °F - 71.1 °F 77% 30.02 in 10.0 mi Calm Calm - N/A   Clear
3:53 AM 78.1 °F - 72.0 °F 81% 30.01 in 10.0 mi Calm Calm - N/A   Clear
4:53 AM 77.0 °F - 72.0 °F 84% 30.00 in 10.0 mi Calm Calm - N/A   Clear
5:53 AM 77.0 °F - 72.0 °F 84% 30.00 in 10.0 mi Calm Calm - N/A   Partly Cloudy
6:53 AM 78.1 °F - 73.0 °F 84% 30.03 in 10.0 mi SE 11.5 mph - N/A   Scattered Clouds
8:53 AM 79.0 °F - 73.0 °F 82% 30.05 in 10.0 mi Calm Calm - N/A   Clear
9:53 AM 81.0 °F 85.8 °F 73.0 °F 77% 30.06 in 10.0 mi East 3.5 mph - N/A   Overcast
10:53 AM 84.0 °F 89.6 °F 72.0 °F 67% 30.07 in 10.0 mi East 8.1 mph - N/A   Mostly Cloudy
11:44 AM 78.8 °F - 71.6 °F 78% 30.07 in 1.8 mi East 9.2 mph - 0.02 in Rain Light Rain
11:53 AM 77.0 °F - 72.0 °F 84% 30.07 in 3.0 mi East 4.6 mph - 0.04 in Rain Light Rain
12:53 PM 79.0 °F - 75.0 °F 88% 30.04 in 3.0 mi NE 6.9 mph - 0.07 in Rain Light Rain
1:53 PM 81.0 °F 87.3 °F 75.9 °F 85% 30.04 in 10.0 mi East 5.8 mph - 0.00 in   Scattered Clouds
2:53 PM 84.0 °F 91.2 °F 73.9 °F 72% 30.02 in 10.0 mi East 6.9 mph - N/A   Scattered Clouds
3:53 PM 86.0 °F 92.2 °F 72.0 °F 63% 29.99 in 10.0 mi East 10.4 mph - N/A   Scattered Clouds
4:53 PM 82.0 °F 86.7 °F 72.0 °F 71% 29.99 in 10.0 mi SE 5.8 mph - N/A   Clear
5:53 PM 82.9 °F 88.8 °F 73.0 °F 72% 29.99 in 10.0 mi East 8.1 mph - N/A   Mostly Cloudy
6:53 PM 81.0 °F 85.8 °F 73.0 °F 77% 30.00 in 10.0 mi ESE 5.8 mph - N/A   Clear
7:53 PM 81.0 °F 85.8 °F 73.0 °F 77% 30.01 in 10.0 mi East 4.6 mph - N/A   Clear
8:53 PM 75.9 °F - 71.1 °F 85% 30.03 in 2.5 mi NE 16.1 mph 23.0 mph 0.02 in Rain Rain
9:05 PM 75.2 °F - 71.6 °F 89% 30.03 in 1.8 mi NE 8.1 mph - 0.07 in Rain Rain
9:16 PM 75.2 °F - 73.4 °F 94% 30.03 in 3.0 mi NNE 5.8 mph - 0.10 in Rain Light Rain
9:53 PM 78.1 °F - 75.0 °F 90% 30.04 in 7.0 mi ENE 3.5 mph - 0.11 in Rain Light Rain
10:53 PM 78.1 °F - 75.9 °F 93% 30.04 in 10.0 mi Calm Calm - 0.01 in   Mostly Cloudy
11:53 PM 77.0 °F - 73.9 °F 90% 30.03 in 10.0 mi ENE 4.6 mph - N/A   Clear